Tracking 23611 objects as of 18-Sep-2021
HD Live streaming from Space Station
objects crossing your sky now
Track INSPIRATION-4

SKYNET 2B

Track SKYNET 2B now!
SKYNET 2B is classified as:


NORAD ID: 7547
Int'l Code: 1974-094A
Perigee: 35,770.8 km
Apogee: 35,808.8 km
Inclination: 7.9 °
Period: 1,435.9 minutes
Semi major axis: 42160 km
RCS: 3.166 m2 (large)
Launch date: November 23, 1974
Source: United Kingdom (UK)
Launch site: AIR FORCE EASTERN TEST RANGE (AFETR)
aabbcc
Your satellite tracking list
Your tracking list is empty




NASA's NSSDC Master Catalog

Two Line Element Set (TLE):
1 07547U 74094A   21261.39007840 -.00000024  00000-0  00000-0 0  9997
2 07547   7.8668 299.3517 0004500 166.0651  33.7574  1.00285903107386
Source of the keplerian elements: AFSPC